Temperature
26 25 25 25 23 22 24 25 26 26 25 25 25 24 23 23 21 19 20 20 21 20 20 20 20 20 20 19 19 19 19 19 19 19 19 19 19 18 18 18 18 18 18 18 18 18 18 18 18
26 26 25 25 23 22 24 26 26 26 25 25 24 24 23 21 20 19 19 20 21 21 20 20 20 20 20 19 19 19 19 19 19 19 19 19 19 18 18 18 18 18 18 18 18 18 18 18 18
27 26 26 23 23 23 25 26 26 27 26 26 25 24 23 21 20 20 21 21 21 21 20 20 20 20 20 19 19 19 19 19 19 19 19 18 18 18 18 18 18 18 18 18 18 18 18 18 18
27 27 26 23 24 26 26 26 27 26 26 25 25 24 23 22 22 21 21 21 21 21 20 20 20 20 20 19 19 19 19 19 19 19 19 18 18 18 18 18 18 18 18 18 18 18 18 18 17
28 27 23 23 25 27 27 27 27 26 26 25 24 23 22 22 22 22 21 21 22 21 21 20 20 20 20 20 19 19 19 19 19 19 19 18 18 18 18 18 18 18 18 18 18 18 18 17 17
28 25 23 23 26 27 27 27 27 25 25 24 23 22 21 22 22 22 22 22 22 21 21 20 20 20 20 20 20 19 19 19 19 19 19 18 18 18 18 18 18 18 18 18 18 18 18 17 17
27 24 24 25 26 27 27 27 26 25 25 24 24 22 21 21 22 21 21 21 21 21 21 21 20 20 20 20 20 19 19 19 19 19 18 18 18 18 18 18 18 18 18 18 18 18 18 17 17
29 24 25 25 26 27 27 27 27 26 25 25 24 22 22 21 21 21 21 21 21 21 21 21 20 20 20 20 19 19 19 19 19 19 18 18 18 18 18 18 18 18 18 18 18 18 18 17 17
29 24 25 26 27 27 27 27 27 26 26 25 25 24 23 22 21 21 21 21 21 20 20 20 20 20 20 20 19 19 19 19 19 19 18 18 18 18 18 18 18 18 18 18 18 18 18 17 17
28 24 27 28 28 28 28 27 27 26 25 24 24 24 23 22 22 21 21 21 21 20 20 20 20 20 20 20 19 19 19 19 19 18 18 18 18 18 18 18 18 18 18 18 18 18 18 18 17
29 27 29 29 30 29 28 27 27 26 24 24 24 23 22 22 22 22 21 21 21 21 20 20 20 20 20 19 19 19 19 19 18 18 18 18 18 18 18 18 18 18 18 18 18 18 18 18 18
29 30 31 30 30 29 28 28 27 26 25 26 25 24 23 22 22 22 22 21 21 21 20 20 20 20 19 19 19 19 19 18 18 18 18 18 18 18 18 18 18 18 18 18 18 18 18 18 18
29 30 31 30 30 30 29 28 27 26 26 25 25 24 23 23 23 22 22 22 21 21 20 20 20 20 19 19 19 19 19 18 18 18 18 18 18 18 18 18 18 18 18 18 18 18 18 18 17
30 30 30 30 30 29 28 27 27 26 25 25 24 24 23 23 23 22 22 21 21 21 20 20 20 19 19 19 19 19 19 18 18 18 18 18 18 18 18 18 18 18 18 18 18 18 18 18 18
30 28 28 29 29 29 28 26 26 26 25 24 24 23 23 23 23 23 22 22 22 21 21 20 20 19 19 19 19 19 18 18 18 18 18 18 18 18 18 18 18 18 18 18 18 18 18 18 18
28 28 27 28 29 29 27 25 26 26 25 24 23 23 23 23 23 23 22 22 22 21 21 20 20 20 19 19 19 19 18 18 18 18 18 18 18 18 18 18 18 18 18 18 18 18 18 18 18
26 26 27 28 29 29 27 26 26 26 25 24 23 23 23 23 23 23 22 22 22 21 21 21 20 20 19 19 19 19 18 18 18 18 18 18 18 18 18 18 18 18 18 18 18 18 18 18 18
26 27 27 28 29 29 27 26 26 26 26 24 24 23 23 23 23 23 22 22 22 21 21 21 20 20 20 19 19 19 19 18 18 18 18 18 18 18 18 18 18 18 18 18 18 18 18 18 18
27 28 28 29 29 29 28 27 26 26 25 25 24 24 23 23 23 23 23 22 22 21 21 21 20 20 20 19 19 19 19 19 18 18 18 18 18 18 18 18 18 18 18 18 18 18 18 18 18
29 28 28 28 29 29 27 27 26 26 26 25 24 24 23 23 23 23 22 22 22 22 21 21 20 20 20 20 19 19 19 19 19 18 18 18 18 18 18 18 18 18 18 18 18 18 18 18 18
29 28 28 28 28 27 27 25 25 26 26 26 25 25 24 24 23 23 23 22 22 22 21 21 21 20 20 20 19 19 18 18 18 18 18 18 18 18 18 18 18 18 18 18 18 18 18 18 18
28 29 29 29 26 25 26 24 25 24 25 25 25 24 24 24 24 23 23 23 22 22 22 21 21 20 20 19 19 19 19 19 19 18 18 18 18 18 18 18 18 18 18 18 18 18 18 18 18
29 30 29 29 26 25 25 24 23 24 24 24 24 24 24 24 24 24 24 23 23 22 22 21 21 20 20 19 19 19 19 19 18 18 18 18 18 18 18 18 18 18 18 18 18 18 18 18 18
30 27 25 22 22 24 25 25 24 23 25 25 24 25 25 25 24 24 24 23 23 22 22 21 21 20 20 19 19 19 19 18 18 18 18 18 18 18 18 18 18 18 18 18 18 18 18 18 18
27 23 22 23 22 23 24 24 23 24 26 25 25 25 25 25 24 24 23 23 23 22 22 21 21 20 20 19 19 19 19 18 18 18 18 18 18 18 18 18 18 18 18 18 18 18 18 18 18
27 23 22 23 23 23 24 24 24 26 27 27 27 26 25 25 25 24 24 23 23 22 22 21 21 21 20 20 19 19 19 18 18 18 18 18 18 18 18 18 18 18 18 18 18 18 18 18 18
27 24 22 21 23 23 23 25 26 27 26 26 26 25 25 25 25 25 24 24 23 23 22 22 21 21 20 20 19 19 18 18 18 18 18 18 18 18 18 18 18 18 18 18 18 18 18 17 17
27 25 21 22 23 23 23 24 24 26 25 25 24 24 24 25 24 24 24 24 23 23 22 22 21 21 20 20 19 19 19 18 18 18 18 18 18 18 18 18 18 18 18 18 18 17 17 17 17
27 27 22 20 20 21 23 23 24 24 24 24 24 25 25 25 25 25 24 24 23 23 22 22 21 21 20 20 19 19 19 18 18 18 18 18 18 18 18 18 17 17 17 17 17 17 17 17 17
26 25 22 23 22 20 21 22 25 24 24 25 25 25 25 26 25 25 25 24 23 23 22 22 21 21 20 20 19 19 19 18 18 18 18 18 18 18 18 18 17 17 17 17 17 17 17 17 17
Wind_Speed
5 5 3 1 5 6 7 7 9 9 6 7 10 10 9 7 6 8 5 14 16 13 16 18 19 19 18 17 17 16 15 15 15 15 16 16 16 15 15 15 15 15 14 14 14 14 14 15 16
2 2 2 3 6 6 5 7 11 11 12 13 12 12 10 8 9 12 8 14 16 15 16 18 19 19 18 18 17 16 15 15 15 14 14 14 14 14 14 14 14 14 13 13 13 13 14 14 15
2 2 3 5 4 5 6 8 12 13 12 10 7 7 6 9 12 9 11 17 15 14 16 19 20 19 18 18 17 16 15 15 14 14 14 14 14 13 13 13 13 13 13 12 12 13 13 13 13
1 3 5 5 4 4 8 9 13 13 10 9 10 7 5 7 8 13 19 18 16 12 16 19 20 19 18 18 16 15 15 15 14 13 13 13 13 13 13 13 13 12 12 12 12 12 12 12 11
3 5 6 5 4 5 8 10 11 11 6 9 12 9 5 6 18 21 19 18 17 12 15 18 20 19 18 17 16 15 14 14 14 13 13 13 13 13 12 12 12 12 11 11 11 11 11 10 10
4 5 5 2 3 5 7 10 14 14 13 12 12 9 5 12 19 19 18 16 16 14 15 18 19 19 18 17 16 15 14 14 13 13 13 13 13 12 12 12 12 11 11 11 10 10 10 9 8
4 4 3 4 5 5 7 9 12 13 12 9 9 8 6 11 15 17 16 15 14 14 13 14 17 17 17 17 16 15 14 13 13 12 12 12 12 12 11 11 11 11 10 10 10 9 9 8 7
5 5 2 3 6 5 6 6 9 11 8 11 8 8 9 12 16 16 15 14 13 11 10 11 13 14 15 15 15 15 14 13 12 12 11 11 11 11 11 10 10 10 9 9 9 8 7 6 6
5 5 2 4 6 6 7 8 5 6 9 5 5 7 13 19 19 18 15 12 11 11 9 9 11 12 13 13 14 14 13 12 12 11 11 10 9 10 10 10 10 9 9 8 8 7 6 5 4
5 4 4 5 8 9 9 10 7 6 8 7 10 11 18 19 19 19 18 16 13 13 11 9 10 11 12 11 12 11 10 10 10 9 9 8 8 8 8 10 10 9 8 7 6 5 4 3 2
3 5 3 4 9 11 9 7 5 10 7 12 17 19 19 18 17 17 16 16 15 14 13 11 10 11 11 8 10 8 8 9 8 9 9 8 7 7 8 7 7 7 7 5 4 3 2 2 2
1 0 3 5 8 8 8 7 7 7 9 14 18 20 17 17 17 16 16 15 14 13 13 12 10 9 10 10 9 8 7 7 7 9 10 9 6 6 7 6 6 6 6 5 4 3 2 2 2
3 2 3 4 6 7 8 9 9 8 13 15 17 17 17 16 13 12 13 13 13 13 12 12 11 10 9 8 7 8 7 8 9 9 10 11 7 5 6 6 7 7 7 6 5 4 3 2 3
2 3 4 2 4 4 10 8 8 8 15 16 16 15 15 14 13 11 11 11 12 12 12 11 11 10 9 7 5 6 8 9 9 9 10 12 10 8 6 5 5 6 7 7 6 5 4 3 2
2 4 6 2 2 4 9 5 7 13 15 16 16 15 13 12 12 13 14 13 13 12 12 11 11 10 9 8 6 7 8 8 7 9 10 11 11 10 8 5 4 6 8 7 6 4 3 2 1
5 4 3 5 2 5 8 4 7 14 16 14 14 14 13 11 12 12 13 12 12 12 12 12 11 10 9 7 5 5 6 7 7 9 9 10 11 12 9 5 4 7 7 6 3 3 2 2 2
5 2 5 6 4 5 6 5 9 13 16 14 14 14 13 11 10 10 12 13 13 13 12 11 10 10 9 7 5 4 5 5 7 8 8 10 11 12 9 6 6 7 5 4 4 3 3 2 2
5 4 4 3 3 5 5 5 11 13 15 15 14 13 13 14 13 12 12 12 12 12 11 11 10 9 8 6 4 2 2 2 5 7 8 10 10 11 10 6 6 7 4 3 3 3 3 3 3
6 4 3 3 2 4 5 6 11 12 13 13 13 13 13 13 11 11 12 12 12 11 11 11 10 9 8 5 4 3 3 2 2 4 8 9 10 10 9 5 5 5 5 5 5 3 3 2 2
3 2 3 3 1 2 2 2 7 12 15 16 16 15 14 12 10 11 11 11 12 12 11 10 10 10 9 6 5 4 3 2 3 3 5 9 9 9 9 6 5 5 4 5 5 4 3 2 3
3 1 2 2 4 6 5 4 1 5 6 10 13 14 14 15 15 13 12 11 11 11 12 11 11 10 9 7 4 3 2 1 1 2 3 6 9 9 8 8 6 5 5 5 5 5 5 3 2
4 4 1 3 4 2 3 0 5 4 6 10 12 12 13 13 13 12 12 12 12 11 11 10 11 10 8 8 7 7 5 5 5 4 4 4 7 9 9 8 7 6 5 5 6 5 4 5 3
5 2 3 3 4 3 3 4 6 2 6 10 12 13 13 13 14 14 13 13 11 11 11 10 10 9 9 8 8 7 5 4 3 3 4 4 5 7 8 9 7 6 5 6 6 5 5 5 5
1 7 9 8 6 2 4 4 5 6 9 10 11 13 13 13 13 12 11 10 9 9 10 10 10 9 9 9 8 8 7 6 4 4 4 4 4 4 6 7 7 6 5 6 6 6 6 6 5
6 7 5 6 5 5 4 2 7 9 9 13 15 14 13 12 11 11 12 11 11 11 11 10 10 9 9 9 8 8 8 7 6 5 5 5 4 4 6 5 5 5 5 6 5 5 6 6 5
5 10 8 4 4 5 5 2 7 6 8 11 12 13 13 11 11 12 12 12 11 12 11 11 10 9 8 8 8 7 6 5 5 5 5 5 5 5 5 5 6 6 6 6 5 5 5 5 5
6 6 10 7 2 2 5 4 5 2 6 9 11 12 12 12 11 12 11 11 11 11 11 11 11 9 8 8 7 6 6 6 6 5 5 4 5 5 5 6 6 6 5 5 5 4 5 4 5
9 9 7 5 3 2 5 3 5 6 7 8 11 13 12 10 10 10 10 11 10 10 9 10 10 9 8 8 7 6 6 6 5 4 5 5 5 5 5 5 6 6 5 5 5 4 4 5 4
5 6 7 6 6 6 2 7 7 11 10 11 12 14 15 14 13 11 9 10 10 9 9 9 9 8 7 7 6 6 5 5 5 4 5 5 4 4 5 5 5 5 5 5 4 5 5 5 4
9 10 10 6 5 6 5 7 7 8 9 12 13 13 14 13 11 10 10 9 9 10 9 9 9 9 8 7 6 6 5 4 4 4 4 4 4 4 4 4 5 5 5 5 5 5 4 5 5
Wind_Direction
238 198 164 141 53 55 81 91 100 90 72 73 84 88 88 73 109 133 135 139 133 132 132 130 129 126 124 120 116 114 111 108 107 107 106 105 106 107 108 109 110 110 111 112 113 112 112 114 115
240 163 128 56 75 79 78 99 94 99 119 108 87 85 77 71 90 115 125 139 134 132 131 131 130 128 125 123 120 118 116 113 111 111 110 110 110 110 110 112 112 113 114 115 116 116 117 118 119
225 161 85 63 87 121 120 113 108 105 110 105 98 77 80 110 119 130 143 141 132 129 132 133 131 130 128 126 124 122 120 118 116 115 114 114 114 114 114 114 114 116 117 117 118 120 121 121 121
102 63 53 71 99 125 126 127 116 108 92 88 97 76 73 118 127 137 142 139 131 129 134 136 134 132 131 129 128 127 125 122 121 120 119 117 117 116 117 117 117 119 120 119 119 121 123 123 123
81 73 61 62 88 103 109 116 112 103 98 97 97 96 77 87 123 135 141 138 134 133 135 137 136 136 134 132 132 131 129 127 126 125 123 122 120 120 120 121 121 121 122 123 122 123 125 126 125
49 68 74 90 104 105 109 114 106 103 111 109 107 106 99 124 133 141 142 139 138 138 137 139 139 137 136 135 135 134 132 131 130 128 126 125 125 124 124 125 125 125 125 127 126 126 128 129 127
108 94 133 148 126 119 129 126 118 126 131 133 126 105 118 137 143 142 139 136 136 138 138 139 141 140 139 139 137 136 135 135 134 133 131 130 130 131 131 130 131 131 132 133 131 129 129 126 123
145 110 105 132 128 136 141 119 126 129 126 131 128 128 148 155 141 135 131 132 134 138 141 141 141 142 143 144 143 142 140 139 138 138 136 137 137 137 137 136 136 138 139 138 137 135 132 127 125
123 94 145 160 140 145 137 110 107 103 119 136 118 130 146 142 136 132 132 133 142 147 151 150 147 147 147 149 150 149 146 146 144 144 143 141 138 140 142 145 144 146 146 145 146 144 137 130 125
110 138 204 166 144 140 135 127 129 103 105 103 100 116 134 138 141 144 149 153 157 160 164 164 158 157 156 157 151 153 152 153 153 154 150 151 155 158 155 156 154 154 155 154 157 157 149 131 128
141 162 162 129 132 133 128 126 116 127 133 146 142 144 146 146 152 154 159 161 165 167 167 169 167 164 164 155 157 162 158 161 168 174 172 169 167 167 159 157 158 157 160 161 166 165 167 168 164
50 234 126 135 125 127 129 129 123 139 163 156 149 150 152 154 160 165 164 166 167 167 169 168 166 166 168 161 168 169 164 168 175 185 183 170 157 156 158 164 169 169 171 174 180 184 213 217 200
30 7 43 118 128 131 124 124 128 134 141 147 149 153 158 162 166 165 164 164 163 166 166 167 164 165 165 162 172 171 173 177 182 184 182 173 162 164 167 171 176 184 186 186 188 201 215 213 191
303 356 3 83 108 120 125 121 116 141 142 149 155 161 163 167 164 157 158 162 164 163 161 163 162 161 158 161 168 171 180 181 178 181 182 176 170 169 169 169 175 185 191 191 186 192 191 192 171
348 16 348 314 129 147 113 91 148 151 148 156 164 167 166 169 165 166 168 167 166 162 158 161 161 160 157 159 165 167 173 177 178 180 179 177 175 172 171 168 176 189 191 187 181 188 181 175 163
1 26 321 276 196 170 122 159 181 154 154 163 171 172 171 175 173 170 167 164 162 159 159 165 165 161 160 160 158 159 163 166 177 178 175 179 181 177 171 169 182 193 184 176 169 173 163 177 179
2 310 268 277 217 165 134 165 176 167 162 168 174 174 174 176 176 173 169 166 164 162 162 164 161 164 166 161 155 154 154 161 173 176 178 183 183 181 174 176 190 188 178 175 181 172 166 177 187
269 277 274 248 229 136 137 167 167 173 168 172 174 173 174 178 183 175 169 167 165 164 163 162 163 167 163 152 141 137 146 159 169 177 185 187 186 181 176 179 188 176 167 177 174 172 172 174 179
248 283 302 268 212 125 153 158 171 173 172 173 175 175 178 183 179 167 165 166 163 163 164 164 163 170 163 159 162 162 177 184 186 191 191 188 185 183 178 179 178 173 174 181 174 159 161 179 150
269 332 331 320 318 98 138 149 179 176 182 180 178 179 177 172 167 168 167 169 171 172 170 168 169 175 175 173 167 163 167 187 195 203 196 196 192 192 190 180 179 178 175 180 176 160 157 186 160
316 290 276 284 6 39 75 10 222 200 187 181 179 177 173 174 174 174 174 178 176 176 176 178 176 177 177 167 150 143 132 124 190 212 215 210 197 198 195 190 183 184 180 187 192 177 168 188 208
292 285 43 63 64 313 97 165 272 217 182 179 178 177 178 178 176 176 180 181 183 182 177 172 174 175 175 170 170 172 183 199 208 200 213 223 209 204 198 194 191 190 189 190 201 189 179 172 199
230 290 20 34 82 18 16 129 272 214 187 191 183 180 181 180 178 179 186 185 183 177 174 173 174 178 179 180 183 183 193 203 198 193 212 228 226 213 205 199 193 193 193 196 203 193 188 183 190
148 38 24 38 61 350 262 154 253 225 201 187 183 183 182 179 178 180 182 175 174 172 172 174 175 184 184 183 184 186 191 194 191 200 211 224 227 223 214 203 197 196 196 198 204 201 197 198 198
80 77 25 359 8 261 283 165 242 236 200 181 178 180 179 174 170 169 170 173 174 173 175 176 176 183 184 184 189 192 192 191 198 203 209 212 218 221 218 208 203 204 204 202 199 202 205 201 200
159 134 154 192 225 283 334 238 259 240 194 167 163 163 162 167 172 172 174 173 175 177 175 175 178 182 180 183 190 191 189 191 202 205 204 209 217 219 215 206 207 205 204 208 199 202 208 204 209
156 172 170 145 200 314 300 299 321 63 130 142 149 151 162 169 174 174 172 170 172 176 177 176 177 178 182 185 184 188 192 195 205 211 210 217 222 222 215 207 206 206 202 201 195 206 211 203 213
165 155 99 114 148 267 302 277 222 199 166 153 156 163 165 165 170 171 170 172 175 177 175 171 174 178 179 181 184 190 195 201 205 204 211 218 225 224 204 206 205 204 202 204 198 206 209 202 212
181 150 123 130 150 151 243 274 231 197 178 166 171 171 167 169 175 174 173 172 169 168 167 169 171 171 174 182 186 186 193 200 201 204 214 219 222 211 202 200 199 200 203 206 205 212 206 205 216
180 179 151 157 208 164 169 265 274 196 177 166 170 172 172 173 170 167 166 163 162 165 169 172 173 174 179 181 182 188 188 186 193 209 215 210 212 210 204 192 192 199 201 199 203 213 208 203 210
Height
1512 1511 1510 1511 1514 1525 1528 1521 1515 1515 1517 1518 1517 1518 1521 1525 1531 1541 1540 1541 1544 1545 1547 1549 1550 1551 1552 1553 1554 1555 1556 1556 1557 1558 1558 1559 1560 1561 1562 1562 1563 1564 1565 1566 1566 1567 1568 1569 1569
1512 1511 1512 1513 1524 1540 1533 1519 1517 1516 1518 1518 1520 1521 1523 1529 1531 1535 1538 1543 1545 1546 1548 1550 1551 1552 1553 1554 1555 1556 1557 1558 1558 1559 1560 1560 1561 1562 1563 1564 1564 1565 1566 1567 1568 1569 1569 1570 1571
1513 1512 1514 1517 1528 1535 1531 1519 1517 1518 1519 1518 1521 1524 1527 1532 1534 1536 1540 1543 1546 1548 1549 1551 1552 1554 1555 1556 1557 1557 1558 1559 1560 1560 1561 1562 1563 1563 1564 1565 1566 1567 1567 1568 1569 1570 1571 1572 1573
1514 1515 1516 1524 1530 1522 1519 1517 1516 1519 1521 1521 1522 1527 1531 1534 1535 1537 1541 1544 1546 1549 1551 1552 1553 1555 1556 1557 1558 1559 1559 1560 1561 1562 1562 1563 1564 1564 1565 1566 1567 1568 1569 1570 1571 1572 1572 1573 1574
1514 1515 1523 1532 1527 1519 1516 1516 1516 1518 1521 1523 1523 1529 1534 1537 1537 1539 1542 1545 1547 1549 1551 1553 1554 1556 1557 1558 1559 1560 1560 1561 1562 1563 1563 1564 1565 1566 1566 1567 1568 1569 1570 1571 1572 1573 1574 1575 1576
1515 1517 1533 1539 1528 1520 1517 1517 1517 1521 1525 1526 1527 1530 1537 1538 1539 1541 1544 1547 1548 1550 1552 1554 1555 1557 1558 1559 1560 1561 1561 1562 1563 1564 1564 1565 1566 1567 1568 1569 1570 1571 1572 1573 1574 1575 1576 1577 1578
1517 1522 1531 1531 1528 1523 1519 1517 1517 1521 1524 1527 1528 1532 1538 1540 1541 1543 1546 1548 1550 1551 1553 1554 1556 1557 1559 1560 1561 1562 1562 1563 1564 1565 1566 1566 1567 1568 1569 1570 1571 1572 1573 1574 1575 1576 1578 1578 1580
1515 1520 1528 1527 1526 1525 1519 1518 1519 1521 1524 1528 1529 1531 1537 1540 1542 1545 1547 1549 1551 1553 1554 1555 1557 1558 1559 1560 1562 1563 1563 1564 1565 1566 1567 1568 1569 1570 1571 1572 1573 1574 1575 1576 1577 1578 1579 1580 1581
1514 1524 1531 1525 1522 1521 1518 1519 1522 1522 1524 1527 1529 1530 1534 1539 1543 1545 1548 1550 1552 1553 1555 1556 1557 1559 1560 1561 1562 1563 1564 1565 1566 1567 1568 1569 1570 1571 1572 1573 1574 1575 1576 1577 1579 1580 1581 1582 1583
1512 1526 1520 1512 1512 1515 1517 1518 1520 1524 1525 1528 1531 1534 1537 1540 1542 1544 1546 1548 1551 1553 1555 1557 1558 1559 1560 1562 1563 1564 1565 1566 1567 1568 1569 1570 1571 1572 1573 1574 1575 1576 1577 1579 1580 1581 1582 1583 1584
1511 1515 1511 1510 1510 1512 1515 1517 1519 1523 1527 1527 1529 1533 1537 1540 1542 1544 1545 1548 1550 1553 1554 1556 1558 1559 1561 1562 1563 1564 1565 1566 1568 1569 1570 1571 1572 1573 1574 1575 1576 1577 1578 1580 1581 1582 1583 1584 1585
1510 1508 1508 1510 1510 1511 1513 1516 1519 1521 1524 1526 1528 1531 1535 1539 1541 1543 1545 1548 1550 1552 1554 1556 1558 1559 1561 1563 1564 1565 1566 1567 1568 1569 1571 1572 1573 1574 1575 1576 1577 1578 1579 1580 1582 1583 1584 1585 1586
1511 1510 1509 1510 1510 1511 1512 1515 1518 1522 1524 1527 1530 1533 1535 1538 1540 1543 1545 1547 1550 1551 1553 1555 1557 1559 1560 1562 1564 1565 1566 1567 1569 1570 1571 1572 1573 1574 1576 1577 1578 1579 1580 1581 1582 1583 1584 1585 1586
1513 1511 1510 1511 1511 1512 1513 1517 1518 1523 1525 1528 1531 1533 1535 1537 1539 1542 1545 1547 1549 1551 1552 1555 1556 1558 1560 1562 1563 1565 1566 1567 1569 1570 1571 1572 1573 1575 1576 1577 1578 1579 1580 1581 1582 1584 1585 1586 1586
1513 1513 1513 1510 1510 1514 1515 1522 1520 1522 1525 1528 1530 1532 1535 1537 1539 1540 1542 1545 1548 1550 1552 1554 1556 1558 1559 1561 1563 1564 1566 1567 1568 1570 1571 1572 1573 1575 1576 1577 1578 1579 1580 1581 1582 1583 1584 1585 1586
1513 1519 1524 1513 1510 1512 1517 1530 1521 1521 1524 1528 1530 1532 1534 1536 1537 1540 1542 1544 1547 1549 1551 1553 1555 1557 1559 1561 1562 1564 1565 1567 1568 1569 1570 1572 1573 1574 1576 1577 1578 1579 1580 1581 1582 1583 1584 1585 1585
1525 1532 1527 1517 1507 1509 1515 1524 1520 1520 1522 1526 1529 1531 1532 1535 1537 1539 1541 1544 1546 1548 1550 1552 1554 1556 1558 1560 1561 1563 1564 1566 1567 1568 1570 1571 1572 1574 1575 1576 1577 1578 1579 1580 1582 1582 1583 1584 1585
1534 1530 1525 1520 1508 1509 1515 1518 1517 1519 1520 1523 1526 1529 1531 1533 1535 1537 1540 1543 1545 1547 1549 1551 1552 1555 1556 1558 1560 1562 1563 1565 1566 1567 1568 1570 1571 1573 1574 1575 1577 1577 1578 1580 1581 1582 1582 1583 1584
1522 1523 1524 1516 1506 1510 1514 1516 1516 1518 1520 1523 1525 1527 1529 1531 1534 1537 1539 1541 1544 1546 1547 1549 1551 1553 1554 1556 1558 1560 1561 1563 1564 1566 1567 1569 1570 1571 1573 1574 1575 1576 1577 1578 1579 1581 1581 1582 1583
1517 1522 1522 1515 1507 1511 1516 1517 1515 1516 1517 1518 1521 1524 1526 1530 1533 1536 1538 1540 1542 1543 1545 1547 1548 1550 1552 1554 1556 1558 1560 1562 1563 1564 1565 1567 1568 1570 1571 1572 1573 1574 1576 1577 1578 1579 1580 1581 1582
1516 1520 1520 1519 1513 1514 1519 1528 1521 1517 1517 1519 1520 1522 1524 1527 1530 1533 1535 1538 1540 1541 1543 1545 1547 1548 1550 1552 1554 1556 1557 1559 1560 1562 1563 1565 1566 1567 1569 1570 1572 1573 1574 1575 1576 1577 1578 1579 1580
1521 1510 1511 1515 1526 1534 1527 1548 1529 1520 1519 1518 1520 1521 1523 1526 1528 1531 1533 1535 1537 1540 1542 1544 1545 1547 1548 1550 1551 1553 1554 1555 1557 1559 1560 1562 1563 1565 1566 1568 1569 1570 1571 1572 1574 1575 1576 1577 1577
1511 1505 1508 1512 1523 1533 1530 1542 1536 1522 1522 1518 1518 1520 1521 1523 1526 1528 1531 1533 1536 1538 1540 1542 1544 1545 1546 1548 1549 1551 1552 1553 1555 1556 1557 1559 1560 1562 1563 1565 1566 1567 1569 1570 1571 1572 1573 1574 1575
1502 1510 1516 1526 1535 1549 1534 1540 1540 1525 1516 1514 1515 1517 1519 1521 1524 1527 1530 1532 1535 1537 1539 1541 1542 1543 1545 1546 1547 1548 1550 1551 1552 1553 1554 1555 1557 1558 1559 1561 1563 1564 1565 1566 1568 1569 1570 1571 1572
1508 1532 1554 1555 1563 1556 1533 1535 1534 1512 1505 1506 1510 1513 1516 1520 1523 1526 1528 1531 1533 1535 1537 1539 1540 1541 1543 1544 1545 1546 1547 1548 1549 1550 1551 1552 1553 1554 1556 1557 1559 1560 1562 1563 1564 1565 1566 1567 1568
1512 1529 1556 1566 1566 1555 1536 1537 1521 1502 1501 1503 1506 1511 1515 1518 1521 1524 1526 1529 1531 1534 1536 1537 1539 1540 1541 1542 1543 1544 1545 1546 1547 1548 1548 1549 1550 1551 1553 1554 1555 1557 1558 1560 1561 1562 1563 1564 1564
1512 1523 1526 1546 1549 1556 1547 1529 1513 1502 1503 1505 1508 1512 1515 1517 1520 1522 1525 1527 1530 1532 1534 1536 1537 1538 1539 1540 1541 1542 1543 1544 1544 1545 1546 1546 1547 1548 1549 1550 1552 1553 1555 1556 1557 1558 1559 1560 1560
1500 1510 1531 1545 1558 1564 1551 1538 1531 1513 1509 1507 1509 1510 1513 1517 1519 1521 1523 1526 1529 1531 1533 1535 1536 1537 1538 1539 1540 1540 1541 1542 1542 1543 1543 1543 1544 1545 1546 1547 1548 1549 1550 1552 1553 1554 1555 1556 1557
1504 1510 1524 1541 1547 1561 1562 1546 1510 1508 1505 1506 1507 1508 1510 1514 1517 1520 1522 1525 1527 1530 1532 1534 1535 1536 1537 1537 1538 1539 1539 1540 1540 1540 1541 1541 1542 1542 1543 1544 1545 1546 1547 1548 1549 1550 1551 1552 1553
1495 1503 1518 1537 1542 1548 1554 1542 1500 1501 1500 1502 1504 1506 1509 1512 1515 1518 1521 1523 1526 1528 1530 1532 1533 1534 1535 1536 1537 1538 1538 1538 1538 1539 1539 1539 1539 1540 1540 1541 1542 1543 1544 1544 1545 1546 1547 1548 1548